When you browse on this site, cookies collect data to enhance your experience and personalize the content and advertising you see.
Visit our Privacy Policy to learn more. By continuing to use the site, you agree to this use of cookies and data.
  • In Latvia
  • List of Countries
  • For 7 days
  • Water Temperature
  • Satellite Maps
  • Weather Map
  • Weather Widgets
  • user-avatar
    Login

    Hourly Weather Smoniowice

    Today, 24 July, Wednesday

    Time Temperature Precipitation Wind Pressure Humidity
    00:00 +17°C° 0.1 mm 2 mps 742 mmHg 95%
    01:00 +17°C° 0.1 mm 2 mps 742 mmHg 96%
    02:00 +17°C° 0.1 mm 2 mps 742 mmHg 96%
    03:00 +17°C° 0.1 mm 2 mps 741 mmHg 97%
    04:00 +18°C° 0.1 mm 1 mps 741 mmHg 97%
    05:00 +19°C° 0.1 mm 1 mps 741 mmHg 96%
    06:00 +18°C° 0.1 mm 2 mps 741 mmHg 96%
    07:00 +19°C° 0.1 mm 2 mps 741 mmHg 95%
    08:00 +20°C° 0.4 mm 2 mps 741 mmHg 91%
    09:00 +21°C° 0.4 mm 2 mps 741 mmHg 87%
    10:00 +22°C° 0.4 mm 3 mps 742 mmHg 83%
    11:00 +22°C° 0.2 mm 3 mps 742 mmHg 80%
    12:00 +24°C° 0.2 mm 3 mps 741 mmHg 76%
    13:00 +24°C° 0.2 mm 3 mps 741 mmHg 72%
    14:00 +25°C° 0.1 mm 3 mps 741 mmHg 71%
    15:00 +25°C° 0.1 mm 3 mps 741 mmHg 71%
    16:00 +25°C° 0.1 mm 3 mps 741 mmHg 70%
    17:00 +24°C° 0 mm 2 mps 741 mmHg 75%
    18:00 +23°C° 0 mm 1 mps 741 mmHg 79%
    19:00 +22°C° 0 mm 1 mps 741 mmHg 84%
    20:00 +19°C° 0 mm 0 mps 741 mmHg 85%
    21:00 +18°C° 0 mm 0 mps 742 mmHg 87%
    22:00 +17°C° 0 mm 0 mps 742 mmHg 89%
    23:00 +17°C° 0 mm 0 mps 742 mmHg 89%

    Tomorrow, 25 July, Thursday

    Time Temperature Precipitation Wind Pressure Humidity
    00:00 +17°C° 0 mm 0 mps 742 mmHg 90%
    01:00 +16°C° 0 mm 0 mps 742 mmHg 90%
    02:00 +16°C° 0 mm 0 mps 742 mmHg 90%
    03:00 +16°C° 0 mm 0 mps 742 mmHg 91%
    04:00 +16°C° 0 mm 0 mps 742 mmHg 91%
    05:00 +17°C° 0 mm 0 mps 742 mmHg 87%
    06:00 +21°C° 0 mm 1 mps 742 mmHg 82%
    07:00 +22°C° 0 mm 1 mps 742 mmHg 78%
    08:00 +23°C° 0.1 mm 1 mps 742 mmHg 74%
    09:00 +25°C° 0.1 mm 1 mps 742 mmHg 70%
    10:00 +26°C° 0.1 mm 1 mps 742 mmHg 67%
    11:00 +26°C° 0.2 mm 1 mps 742 mmHg 64%
    12:00 +27°C° 0.2 mm 2 mps 741 mmHg 62%
    13:00 +28°C° 0.2 mm 2 mps 741 mmHg 59%
    14:00 +28°C° 0.2 mm 2 mps 741 mmHg 61%
    15:00 +28°C° 0.2 mm 3 mps 740 mmHg 62%
    16:00 +28°C° 0.2 mm 3 mps 740 mmHg 64%
    17:00 +26°C° 0.3 mm 3 mps 740 mmHg 70%
    18:00 +25°C° 0.3 mm 3 mps 740 mmHg 75%
    19:00 +24°C° 0.3 mm 2 mps 740 mmHg 81%
    20:00 +23°C° 0 mm 2 mps 740 mmHg 83%
    21:00 +20°C° 0 mm 2 mps 740 mmHg 85%
    22:00 +19°C° 0 mm 2 mps 740 mmHg 86%
    23:00 +19°C° 0 mm 2 mps 740 mmHg 88%

    Day after tomorrow, 26 July, Friday

    Time Temperature Precipitation Wind Pressure Humidity
    00:00 +18°C° 0 mm 2 mps 740 mmHg 89%
    01:00 +19°C° 0 mm 1 mps 740 mmHg 91%
    02:00 +18°C° 0 mm 1 mps 740 mmHg 91%
    03:00 +18°C° 0 mm 1 mps 739 mmHg 92%
    04:00 +16°C° 0 mm 1 mps 739 mmHg 92%
    05:00 +19°C° 0 mm 1 mps 739 mmHg 89%
    06:00 +20°C° 0 mm 1 mps 739 mmHg 85%
    07:00 +20°C° 0 mm 2 mps 739 mmHg 82%
    08:00 +21°C° 0.2 mm 2 mps 739 mmHg 76%
    09:00 +23°C° 0.2 mm 2 mps 739 mmHg 71%
    10:00 +25°C° 0.2 mm 3 mps 739 mmHg 65%
    11:00 +25°C° 0.2 mm 3 mps 738 mmHg 62%
    12:00 +26°C° 0.2 mm 3 mps 738 mmHg 59%
    13:00 +26°C° 0.2 mm 3 mps 738 mmHg 57%
    14:00 +25°C° 0.4 mm 3 mps 737 mmHg 61%
    15:00 +25°C° 0.4 mm 3 mps 737 mmHg 65%
    16:00 +24°C° 0.4 mm 3 mps 737 mmHg 70%
    17:00 +23°C° 0.2 mm 2 mps 737 mmHg 73%
    18:00 +21°C° 0.2 mm 2 mps 737 mmHg 76%
    19:00 +20°C° 0.2 mm 2 mps 737 mmHg 79%
    20:00 +19°C° 0 mm 2 mps 737 mmHg 82%
    21:00 +18°C° 0 mm 2 mps 737 mmHg 84%
    22:00 +17°C° 0 mm 2 mps 737 mmHg 87%
    23:00 +16°C° 0 mm 2 mps 737 mmHg 89%

    27 July, Saturday

    Time Temperature Precipitation Wind Pressure Humidity
    00:00 +16°C° 0 mm 2 mps 736 mmHg 91%
    01:00 +16°C° 0 mm 2 mps 736 mmHg 94%
    02:00 +15°C° 0 mm 2 mps 736 mmHg 94%
    03:00 +15°C° 0 mm 2 mps 736 mmHg 95%
    04:00 +15°C° 0 mm 2 mps 736 mmHg 96%
    05:00 +16°C° 0 mm 2 mps 736 mmHg 92%
    06:00 +17°C° 0 mm 2 mps 736 mmHg 89%
    07:00 +19°C° 0 mm 2 mps 736 mmHg 85%
    08:00 +20°C° 0 mm 2 mps 736 mmHg 79%
    09:00 +21°C° 0 mm 3 mps 736 mmHg 72%
    10:00 +24°C° 0 mm 3 mps 736 mmHg 66%
    11:00 +24°C° 0 mm 3 mps 736 mmHg 64%
    12:00 +25°C° 0 mm 3 mps 736 mmHg 61%
    13:00 +25°C° 0 mm 3 mps 735 mmHg 59%
    14:00 +25°C° 0.2 mm 4 mps 735 mmHg 62%
    15:00 +25°C° 0.2 mm 4 mps 735 mmHg 65%
    16:00 +25°C° 0.2 mm 4 mps 735 mmHg 68%
    17:00 +22°C° 0.3 mm 4 mps 735 mmHg 74%
    18:00 +21°C° 0.3 mm 3 mps 735 mmHg 79%
    19:00 +20°C° 0.3 mm 2 mps 734 mmHg 84%
    20:00 +19°C° 0 mm 2 mps 734 mmHg 86%
    21:00 +19°C° 0 mm 1 mps 734 mmHg 88%
    22:00 +19°C° 0 mm 1 mps 734 mmHg 90%
    23:00 +19°C° 0 mm 1 mps 734 mmHg 91%

    28 July, Sunday

    Time Temperature Precipitation Wind Pressure Humidity
    00:00 +18°C° 0 mm 2 mps 734 mmHg 92%
    01:00 +18°C° 0 mm 2 mps 734 mmHg 94%
    02:00 +17°C° 0 mm 2 mps 734 mmHg 95%
    03:00 +17°C° 0 mm 2 mps 733 mmHg 96%
    04:00 +17°C° 0 mm 2 mps 733 mmHg 97%
    05:00 +17°C° 0 mm 3 mps 733 mmHg 95%
    06:00 +18°C° 0 mm 4 mps 734 mmHg 92%
    07:00 +19°C° 0 mm 5 mps 734 mmHg 90%
    08:00 +19°C° 0.1 mm 5 mps 734 mmHg 86%
    09:00 +20°C° 0.1 mm 5 mps 734 mmHg 83%
    10:00 +20°C° 0.1 mm 5 mps 734 mmHg 80%
    11:00 +21°C° 0 mm 5 mps 734 mmHg 75%
    12:00 +23°C° 0 mm 5 mps 734 mmHg 70%
    13:00 +25°C° 0 mm 4 mps 734 mmHg 65%
    14:00 +25°C° 0 mm 5 mps 734 mmHg 63%
    15:00 +26°C° 0 mm 5 mps 734 mmHg 61%
    16:00 +27°C° 0 mm 5 mps 734 mmHg 58%
    17:00 +25°C° 0 mm 4 mps 734 mmHg 65%
    18:00 +24°C° 0 mm 3 mps 734 mmHg 73%
    19:00 +22°C° 0 mm 3 mps 734 mmHg 80%
    20:00 +21°C° 0 mm 2 mps 735 mmHg 83%
    21:00 +20°C° 0 mm 2 mps 735 mmHg 86%
    22:00 +19°C° 0 mm 2 mps 735 mmHg 89%
    23:00 +19°C° 0 mm 2 mps 735 mmHg 89%

    29 July, Monday

    Time Temperature Precipitation Wind Pressure Humidity
    00:00 +18°C° 0 mm 2 mps 735 mmHg 90%
    01:00 +19°C° 0 mm 1 mps 735 mmHg 90%
    02:00 +19°C° 0 mm 1 mps 735 mmHg 91%
    03:00 +19°C° 0 mm 1 mps 735 mmHg 91%
    04:00 +19°C° 0 mm 1 mps 735 mmHg 92%
    05:00 +19°C° 0 mm 2 mps 736 mmHg 88%
    06:00 +20°C° 0 mm 2 mps 736 mmHg 84%
    07:00 +23°C° 0 mm 2 mps 736 mmHg 80%
    08:00 +24°C° 0.2 mm 3 mps 736 mmHg 76%
    09:00 +26°C° 0.2 mm 3 mps 737 mmHg 71%
    10:00 +27°C° 0.2 mm 3 mps 737 mmHg 66%
    11:00 +27°C° 0.7 mm 4 mps 737 mmHg 66%
    12:00 +27°C° 0.7 mm 4 mps 737 mmHg 66%
    13:00 +27°C° 0.7 mm 4 mps 737 mmHg 65%
    14:00 +27°C° 0.2 mm 5 mps 737 mmHg 61%
    15:00 +27°C° 0.2 mm 5 mps 737 mmHg 57%
    16:00 +27°C° 0.2 mm 5 mps 737 mmHg 53%
    17:00 +25°C° 0 mm 4 mps 737 mmHg 59%
    18:00 +23°C° 0 mm 4 mps 738 mmHg 66%
    19:00 +21°C° 0 mm 3 mps 738 mmHg 72%
    20:00 +20°C° 0 mm 3 mps 738 mmHg 76%
    21:00 +18°C° 0 mm 3 mps 739 mmHg 80%
    22:00 +17°C° 0 mm 2 mps 739 mmHg 84%
    23:00 +16°C° 0 mm 2 mps 739 mmHg 86%
    Show more